Location: North Evanston
(42.0634°N, 87.6976°W)
Time: 14:26:27
(UTC+00:00)

Vanguard 3 - Pass Details

Date: 13 May 2026
Orbit: 507 x 3204 km, 33.3° (Epoch: 6 June)

Event Time Altitude Azimuth Distance (km) Brightness Sun altitude
Rises 19:05:12 0° 226° (SW) 6,587 12.2 61.2°
Reaches altitude 10° 19:09:32 10° 221° (SW) 5,800 12.1 60.7°
Maximum altitude 19:27:04 48° 155° (SSE) 3,829 11.4 58.3°
Drops below altitude 10° 19:43:23 10° 89° (E) 5,450 11.2 55.9°
Sets 19:47:15 0° 84° (E) 6,182 11.3 55.3°
